Home > Weather > Brentwood > Past weeks

Flag for United Kingdom Past Weather in Brentwood, England, United Kingdom — Yesterday and Last 2 Weeks

Now
53 °F

Cool.


Feels Like: 48 °F
Forecast: 56 / 61 °F
Wind: 17 mph from Northwest

Location: Gravesend-Broadness

Current Time: May 31, 2016 at 4:58:52 AM

Latest Report: May 31, 2016 at 4:00 AM


Visibility: N/A

Pressure: 29.91 "Hg

Humidity: 85%

Dew Point: 49 °F

Location of BrentwoodLocation

Past Weather in Brentwood — Graph

°F

Brentwood Temperature Yesterday

Maximum temperature yesterday: 60 °F (at 6:00 PM)
Minimum temperature yesterday: 53 °F (at 2:00 AM)
Average temperature yesterday: 57 °F

High & Low Weather Summary for the Past Weeks

 TemperatureHumidityPressure
High68 °F (May 27, 3:00 PM)99% (May 26, 7:00 AM)30.19 "Hg (May 26, 7:00 AM)
Low41 °F (May 26, 6:00 AM)44% (May 16, 5:00 PM)29.59 "Hg (May 18, 7:00 PM)
Average56 °F77%29.95 "Hg
* Reported May 16 3:00 AM — May 31 3:00 AM, Brentwood, Weather by CustomWeather, © 2016

Note: Actual official high and low records may vary slightly from our data, if they occured in-between our weather recording intervals... More about our weather records

Advertising

Brentwood Weather History for the Previous 24 Hours

Scroll right to see more
 ConditionsComfort  
Time TempWeatherWind HumidityBarometerVisibility
3:00 AM
Tue, May 31
54 °FCool.22 mph84%29.89 "HgN/A
2:00 AM55 °FCool.17 mph81%29.93 "HgN/A
1:00 AM56 °FCool.17 mph79%29.93 "HgN/A
12:00 AM56 °FCool.20 mph77%29.95 "HgN/A
11:00 PM
Mon, May 30
57 °FCool.16 mph75%29.96 "HgN/A
10:00 PM58 °FCool.16 mph74%29.96 "HgN/A
9:00 PM59 °FCool.20 mph73%29.96 "HgN/A
8:00 PM60 °FCool.18 mph71%29.96 "HgN/A
7:00 PM60 °FCool.17 mph74%29.95 "HgN/A
6:00 PM60 °FCool.17 mph75%29.94 "HgN/A
5:00 PM60 °FCool.17 mph76%29.95 "HgN/A
4:00 PM60 °FCool.14 mph76%29.96 "HgN/A
3:00 PM59 °FCool.15 mph77%29.97 "HgN/A
2:00 PM58 °FCool.16 mph78%29.97 "HgN/A
1:00 PM60 °FCool.15 mph76%29.96 "HgN/A
12:00 PM58 °FCool.13 mph84%29.96 "HgN/A
10:00 AM54 °FCool.13 mph88%29.97 "HgN/A
9:00 AM54 °FCool.10 mph84%29.97 "HgN/A
8:00 AM54 °FCool.12 mph87%29.96 "HgN/A
6:00 AM54 °FCool.12 mph87%29.95 "HgN/A
5:00 AM54 °FCool.13 mph87%29.94 "HgN/A
4:00 AM54 °FCool.12 mph87%29.95 "HgN/A
Weather by CustomWeather, © 2016

See weather overviewHow to use our weather pages